This is the latest recevied weather packets stored in our database for station/object W4GAP. If no packets are shown the sender has not sent any weather packets the latest 10 day(s).
| Time | Temp. | Humidity | Pressure | Rain* | Wind** | Luminosity | Snow |
|---|---|---|---|---|---|---|---|
| 1777930503 | 25° C | 38% | 1011.1 hPa | 0 mm | - | 41 W/m² | - |
| 1777930201 | 25° C | 37% | 1011.2 hPa | 0 mm | - | 44 W/m² | - |
| 1777929896 | 25° C | 37% | 1011 hPa | 0 mm | - | 44 W/m² | - |
| 1777929594 | 25° C | 37% | 1011.2 hPa | 0 mm | - | 35 W/m² | - |
| 1777929290 | 25° C | 37% | 1011.1 hPa | 0 mm | - | 41 W/m² | - |
| 1777928988 | 25° C | 37% | 1011.4 hPa | 0 mm | - | 70 W/m² | - |
| 1777928684 | 24.44° C | 37% | 1011.3 hPa | 0 mm | - | 71 W/m² | - |
| 1777928381 | 25° C | 38% | 1011.3 hPa | 0 mm | - | 54 W/m² | - |
| 1777928079 | 25° C | 35% | 1011.3 hPa | 0 mm | - | 55 W/m² | - |
| 1777927777 | 25° C | 35% | 1011.4 hPa | 0 mm | - | 58 W/m² | - |
| 1777927475 | 24.44° C | 38% | 1011.4 hPa | 0 mm | - | 67 W/m² | - |
| 1777927174 | 24.44° C | 38% | 1011.4 hPa | 0 mm | - | 58 W/m² | - |
| 1777926871 | 24.44° C | 39% | 1011.5 hPa | 0 mm | - | 69 W/m² | - |
| 1777926567 | 24.44° C | 38% | 1011.4 hPa | 0 mm | - | 62 W/m² | - |
| 1777926264 | 24.44° C | 39% | 1011.5 hPa | 0 mm | - | 49 W/m² | - |
| 1777925961 | 23.89° C | 38% | 1011.5 hPa | 0 mm | - | 50 W/m² | - |
| 1777925658 | 25° C | 37% | 1011.8 hPa | 0 mm | - | 189 W/m² | - |
| 1777925355 | 25° C | 36% | 1011.7 hPa | 0 mm | - | 35 W/m² | - |
| 1777925052 | 24.44° C | 38% | 1011.7 hPa | 0 mm | - | 34 W/m² | - |
| 1777924749 | 24.44° C | 36% | 1011.7 hPa | 0 mm | - | 38 W/m² | - |
| 1777924444 | 25° C | 35% | 1011.9 hPa | 0 mm | - | 39 W/m² | - |
| 1777924141 | 25° C | 36% | 1011.9 hPa | 0 mm | - | 67 W/m² | - |
| 1777923837 | 24.44° C | 38% | 1011.9 hPa | 0 mm | - | 45 W/m² | - |
| 1777923533 | 24.44° C | 36% | 1012.2 hPa | 0 mm | - | 56 W/m² | - |
| 1777923230 | 25° C | 38% | 1012.1 hPa | 0 mm | - | 222 W/m² | - |
* Rain latest hour (hover to see other rain measurements)
** Current wind speed in m/s (hover to see current wind gust speed)